Home   Weather   Mongomo   Past weeks

Flag for Equatorial Guinea Past Weather in Mongomo, Equatorial Guinea — Yesterday and Last 2 Weeks

Now
70 °F

Passing clouds.


Feels Like: 70 °F
Forecast: 67 / 83 °F
Wind: 3 mph from West

Location: Yaounde Airport

Current Time: Sep 1, 2016 at 4:43:40 AM

Latest Report: Sep 1, 2016 at 4:00 AM


Visibility: 5 mi

Pressure: 30.04 "Hg (27.89 "Hg at 638m altitude)

Humidity: 94%

Dew Point: 68 °F

Location of MongomoLocation

Past Weather in Mongomo — Graph

°F

Mongomo Temperature Yesterday

Maximum temperature yesterday: 86 °F (at 4:00 PM)
Minimum temperature yesterday: 66 °F (at 12:00 AM)
Average temperature yesterday: 74 °F

High & Low Weather Summary for the Past Weeks

 TemperatureHumidityPressure
High86 °F (Aug 22, 3:00 PM)100% (Aug 18, 5:00 AM)30.15 "Hg (Aug 18, 5:00 AM)
Low66 °F (Aug 30, 11:00 PM)55% (Aug 31, 2:00 PM)29.95 "Hg (Aug 18, 4:00 PM)
Average73 °F87%30.05 "Hg
* Reported Aug 17 4:00 AM — Sep 1 3:00 AM, Mongomo, Weather by CustomWeather, © 2016

Note: Actual official high and low records may vary slightly from our data, if they occured in-between our weather recording intervals... More about our weather records

Advertising

Mongomo Weather History for the Previous 24 Hours

Scroll right to see more
 ConditionsComfort  
Time TempWeatherWind HumidityBarometerVisibility
3:00 AM
Thu, Sep 1
70 °FPassing clouds.5 mph94%30.07 "Hg5 mi
2:00 AM70 °FPassing clouds.6 mph94%30.07 "Hg6 mi
1:00 AM70 °FPassing clouds.5 mph94%30.07 "Hg6 mi
12:00 AM72 °FPassing clouds.5 mph94%30.09 "Hg6 mi
11:00 PM
Wed, Aug 31
72 °FPassing clouds.3 mph94%30.09 "Hg6 mi
10:00 PM72 °FThunderstorms. Passing clouds.3 mph94%30.09 "HgN/A
9:00 PM73 °FThunderstorms. Passing clouds.2 mph83%30.07 "HgN/A
8:00 PM75 °FThunderstorms. Passing clouds.3 mph78%30.04 "HgN/A
7:00 PM77 °FPassing clouds.3 mph74%30.01 "HgN/A
6:00 PM81 °FScattered clouds.5 mph70%30.01 "HgN/A
5:00 PM84 °FPartly sunny.7 mph58%29.98 "HgN/A
4:00 PM86 °FPartly sunny.7 mph55%29.98 "HgN/A
3:00 PM84 °FPartly sunny.8 mph58%30.01 "HgN/A
2:00 PM84 °FPartly sunny.7 mph55%30.01 "HgN/A
1:00 PM82 °FPartly sunny.6 mph62%30.07 "HgN/A
12:00 PM79 °FPartly sunny.6 mph70%30.09 "HgN/A
10:00 AM73 °FPartly sunny.5 mph83%30.12 "Hg6 mi
9:00 AM72 °FPartly sunny.6 mph88%30.12 "Hg6 mi
8:00 AM70 °FBroken clouds.5 mph94%30.12 "Hg4 mi
7:00 AM68 °FBroken clouds.2 mph100%30.09 "Hg4 mi
6:00 AM68 °FFog.3 mph100%30.07 "Hg2 mi
5:00 AM68 °FFog.2 mph100%30.07 "Hg1 mi
4:00 AM68 °FFog.2 mph100%30.04 "Hg1 mi
Weather by CustomWeather, © 2016

See weather overviewHow to use our weather pages